When you browse on this site, cookies collect data to enhance your experience and personalize the content and advertising you see.
Visit our Privacy Policy to learn more. By continuing to use the site, you agree to this use of cookies and data.
  • En España
  • Lista de países
  • Para 7 días
  • Temperatura del agua
  • El tiempo en el mapa
  • Informadores
  • user-avatar
    Iniciar sesión

    Tiempo cada hora Linares

    Hoy, 27 Febrero, Jueves

    Tiempo Temperatura Precipitaciones Viento Presión Humedad
    00:00 +8°C° 0 mm 1 mps 729 mmHg 78%
    01:00 +8°C° 0 mm 1 mps 729 mmHg 79%
    02:00 +8°C° 0 mm 1 mps 729 mmHg 81%
    03:00 +6°C° 0 mm 0 mps 729 mmHg 82%
    04:00 +6°C° 0 mm 0 mps 729 mmHg 83%
    05:00 +5°C° 0 mm 0 mps 729 mmHg 84%
    06:00 +5°C° 0 mm 0 mps 729 mmHg 84%
    07:00 +7°C° 0 mm 0 mps 729 mmHg 77%
    08:00 +9°C° 0 mm 0 mps 730 mmHg 69%
    09:00 +10°C° 0 mm 0 mps 730 mmHg 61%
    10:00 +13°C° 0 mm 1 mps 730 mmHg 56%
    11:00 +15°C° 0 mm 1 mps 730 mmHg 50%
    12:00 +17°C° 0 mm 2 mps 731 mmHg 43%
    13:00 +18°C° 0 mm 2 mps 730 mmHg 41%
    14:00 +19°C° 0 mm 2 mps 730 mmHg 39%
    15:00 +20°C° 0 mm 2 mps 729 mmHg 37%
    16:00 +19°C° 0 mm 1 mps 729 mmHg 44%
    17:00 +16°C° 0 mm 1 mps 729 mmHg 51%
    18:00 +14°C° 0 mm 1 mps 729 mmHg 57%
    19:00 +13°C° 0 mm 1 mps 730 mmHg 61%
    20:00 +11°C° 0 mm 0 mps 730 mmHg 65%
    21:00 +10°C° 0 mm 0 mps 730 mmHg 69%
    22:00 +11°C° 0 mm 1 mps 730 mmHg 70%
    23:00 +10°C° 0 mm 1 mps 730 mmHg 70%

    Mañana, 28 Febrero, Viernes

    Tiempo Temperatura Precipitaciones Viento Presión Humedad
    00:00 +10°C° 0 mm 1 mps 730 mmHg 71%
    01:00 +10°C° 0 mm 1 mps 730 mmHg 70%
    02:00 +10°C° 0 mm 1 mps 729 mmHg 69%
    03:00 +9°C° 0 mm 1 mps 729 mmHg 69%
    04:00 +8°C° 0 mm 2 mps 729 mmHg 68%
    05:00 +8°C° 0 mm 2 mps 729 mmHg 67%
    06:00 +8°C° 0 mm 2 mps 729 mmHg 66%
    07:00 +10°C° 0 mm 2 mps 729 mmHg 58%
    08:00 +13°C° 0 mm 2 mps 729 mmHg 51%
    09:00 +16°C° 0 mm 2 mps 729 mmHg 44%
    10:00 +19°C° 0 mm 1 mps 729 mmHg 38%
    11:00 +21°C° 0 mm 1 mps 729 mmHg 32%
    12:00 +23°C° 0 mm 1 mps 729 mmHg 26%
    13:00 +23°C° 0 mm 2 mps 729 mmHg 26%
    14:00 +24°C° 0 mm 2 mps 728 mmHg 26%
    15:00 +24°C° 0 mm 3 mps 727 mmHg 25%
    16:00 +21°C° 0 mm 2 mps 727 mmHg 32%
    17:00 +18°C° 0 mm 2 mps 726 mmHg 40%
    18:00 +16°C° 0 mm 1 mps 726 mmHg 47%
    19:00 +15°C° 0 mm 1 mps 726 mmHg 50%
    20:00 +14°C° 0 mm 1 mps 726 mmHg 54%
    21:00 +13°C° 0 mm 1 mps 726 mmHg 57%
    22:00 +12°C° 0 mm 1 mps 726 mmHg 62%
    23:00 +12°C° 0 mm 2 mps 726 mmHg 67%

    Pasado mañana, 29 Febrero, Sábado

    Tiempo Temperatura Precipitaciones Viento Presión Humedad
    00:00 +10°C° 0 mm 2 mps 726 mmHg 71%
    01:00 +9°C° 0 mm 2 mps 726 mmHg 77%
    02:00 +10°C° 0 mm 1 mps 725 mmHg 83%
    03:00 +9°C° 0 mm 1 mps 725 mmHg 89%
    04:00 +9°C° 0 mm 1 mps 725 mmHg 90%
    05:00 +8°C° 0 mm 2 mps 726 mmHg 92%
    06:00 +8°C° 0 mm 2 mps 726 mmHg 93%
    07:00 +9°C° 0 mm 2 mps 726 mmHg 87%
    08:00 +10°C° 0 mm 3 mps 726 mmHg 81%
    09:00 +11°C° 0 mm 3 mps 726 mmHg 75%
    10:00 +13°C° 0 mm 4 mps 726 mmHg 69%
    11:00 +14°C° 0 mm 5 mps 727 mmHg 63%
    12:00 +15°C° 0 mm 6 mps 727 mmHg 58%
    13:00 +16°C° 0 mm 6 mps 726 mmHg 58%
    14:00 +16°C° 0 mm 6 mps 726 mmHg 58%
    15:00 +16°C° 0 mm 6 mps 725 mmHg 59%
    16:00 +15°C° 0 mm 5 mps 725 mmHg 65%
    17:00 +14°C° 0 mm 5 mps 725 mmHg 70%
    18:00 +13°C° 0 mm 4 mps 725 mmHg 76%
    19:00 +13°C° 0.1 mm 4 mps 725 mmHg 80%
    20:00 +13°C° 0.1 mm 4 mps 725 mmHg 83%
    21:00 +12°C° 0.1 mm 4 mps 726 mmHg 86%
    22:00 +12°C° 0.1 mm 4 mps 726 mmHg 88%
    23:00 +12°C° 0.1 mm 4 mps 725 mmHg 89%

    1 Marzo, Domingo

    Tiempo Temperatura Precipitaciones Viento Presión Humedad
    00:00 +12°C° 0.1 mm 4 mps 725 mmHg 90%
    01:00 +12°C° 0.2 mm 4 mps 725 mmHg 91%
    02:00 +12°C° 0.2 mm 4 mps 725 mmHg 92%
    03:00 +12°C° 0.2 mm 5 mps 725 mmHg 92%
    04:00 +11°C° 0.2 mm 4 mps 725 mmHg 91%
    05:00 +11°C° 0.2 mm 3 mps 725 mmHg 90%
    06:00 +11°C° 0.2 mm 3 mps 725 mmHg 89%
    07:00 +11°C° 0 mm 4 mps 725 mmHg 84%
    08:00 +12°C° 0 mm 4 mps 726 mmHg 79%
    09:00 +12°C° 0 mm 5 mps 726 mmHg 73%
    10:00 +13°C° 0 mm 5 mps 726 mmHg 70%
    11:00 +14°C° 0 mm 5 mps 726 mmHg 67%
    12:00 +15°C° 0 mm 6 mps 726 mmHg 64%
    13:00 +15°C° 0 mm 6 mps 726 mmHg 64%
    14:00 +15°C° 0 mm 5 mps 725 mmHg 64%
    15:00 +16°C° 0 mm 5 mps 725 mmHg 64%
    16:00 +15°C° 0.1 mm 5 mps 725 mmHg 69%
    17:00 +14°C° 0.1 mm 4 mps 725 mmHg 73%
    18:00 +14°C° 0.1 mm 3 mps 724 mmHg 77%
    19:00 +13°C° 0.3 mm 4 mps 725 mmHg 82%
    20:00 +13°C° 0.3 mm 4 mps 725 mmHg 87%
    21:00 +13°C° 0.3 mm 4 mps 725 mmHg 92%
    22:00 +13°C° 0.3 mm 4 mps 725 mmHg 91%
    23:00 +13°C° 0.3 mm 4 mps 725 mmHg 91%

    2 Marzo, Lunes

    Tiempo Temperatura Precipitaciones Viento Presión Humedad
    00:00 +13°C° 0.3 mm 4 mps 724 mmHg 91%
    01:00 +13°C° 0.2 mm 5 mps 724 mmHg 90%
    02:00 +12°C° 0.2 mm 5 mps 723 mmHg 90%
    03:00 +12°C° 0.2 mm 5 mps 723 mmHg 90%
    04:00 +12°C° 0.1 mm 5 mps 722 mmHg 90%
    05:00 +13°C° 0.1 mm 6 mps 722 mmHg 90%
    06:00 +13°C° 0.1 mm 6 mps 722 mmHg 90%
    07:00 +12°C° 0.2 mm 7 mps 722 mmHg 87%
    08:00 +12°C° 0.2 mm 8 mps 723 mmHg 85%
    09:00 +12°C° 0.2 mm 8 mps 723 mmHg 82%
    10:00 +12°C° 0.2 mm 8 mps 723 mmHg 82%
    11:00 +12°C° 0.2 mm 8 mps 723 mmHg 81%
    12:00 +13°C° 0.2 mm 8 mps 723 mmHg 81%
    13:00 +13°C° 0.4 mm 8 mps 723 mmHg 82%
    14:00 +14°C° 0.4 mm 7 mps 723 mmHg 82%
    15:00 +14°C° 0.4 mm 7 mps 723 mmHg 83%
    16:00 +13°C° 0.7 mm 5 mps 723 mmHg 85%
    17:00 +12°C° 0.7 mm 4 mps 724 mmHg 87%
    18:00 +13°C° 0.7 mm 2 mps 724 mmHg 89%
    19:00 +13°C° 0.4 mm 2 mps 724 mmHg 90%
    20:00 +12°C° 0.4 mm 2 mps 725 mmHg 91%
    21:00 +12°C° 0.4 mm 2 mps 725 mmHg 92%
    22:00 +12°C° 0.1 mm 2 mps 725 mmHg 92%
    23:00 +12°C° 0.1 mm 2 mps 726 mmHg 93%

    3 Marzo, Martes

    Tiempo Temperatura Precipitaciones Viento Presión Humedad
    00:00 +12°C° 0.1 mm 2 mps 726 mmHg 94%
    01:00 +12°C° 0.1 mm 2 mps 726 mmHg 95%
    02:00 +11°C° 0.1 mm 3 mps 726 mmHg 96%
    03:00 +11°C° 0.1 mm 3 mps 726 mmHg 96%
    04:00 +11°C° 0.1 mm 3 mps 726 mmHg 96%
    05:00 +11°C° 0.1 mm 3 mps 726 mmHg 96%
    06:00 +12°C° 0.1 mm 2 mps 727 mmHg 96%
    07:00 +11°C° 0 mm 3 mps 727 mmHg 91%
    08:00 +12°C° 0 mm 3 mps 728 mmHg 87%
    09:00 +12°C° 0 mm 4 mps 728 mmHg 82%
    10:00 +13°C° 0 mm 4 mps 728 mmHg 78%
    11:00 +14°C° 0 mm 4 mps 729 mmHg 74%
    12:00 +15°C° 0 mm 4 mps 729 mmHg 69%
    13:00 +15°C° 0 mm 4 mps 728 mmHg 66%
    14:00 +17°C° 0 mm 4 mps 728 mmHg 63%
    15:00 +18°C° 0 mm 4 mps 728 mmHg 60%
    16:00 +17°C° 0 mm 4 mps 728 mmHg 65%
    17:00 +16°C° 0 mm 3 mps 728 mmHg 70%
    18:00 +14°C° 0 mm 3 mps 728 mmHg 74%
    19:00 +15°C° 0 mm 2 mps 728 mmHg 75%
    20:00 +15°C° 0 mm 2 mps 729 mmHg 76%
    21:00 +15°C° 0 mm 1 mps 729 mmHg 77%
    22:00 +15°C° 0 mm 1 mps 729 mmHg 80%
    23:00 +14°C° 0 mm 2 mps 729 mmHg 83%
    Mostrar más